Date String (YYYY-MM-DD hh:mm:ss) UTC,Instrument flags,absolute air pressure of the measurement (hPa),sample flow rate (lpm),inlet stack bypass flow (lpm),air temperature of the measurement (°C),ambient temperature measured by the external sensor (°C),aerosol sample conditioner tube jacket temperature (°C),OPC LED temperature (°C),internal box temperature (°C),relative humidity of the measurement (%),span deviation,mass concentration of particles derived from Lorenz-Mie calculation of OPC scattering (μg/m³),mass concentration of particles derived from Lorenz-Mie calculation of OPC scattering (μg/m³),mass concentration of particles derived from Lorenz-Mie calculation of OPC scattering (μg/m³)
DateTimeUTC,F1_M11,P_M11,Q1_M11,Q2_M11,T1_M11,T2_M11,T3_M11,T4_M11,T5_M11,U1_M11,ZSPAN_M11,X0_M11,X2_M11,X1_M11
2023-09-17 06:00:00,SystemResetWarning,0835.6,5.00,000.00,028.9,027.4,000.0,037.2,030.4,18.6,0000.0,0007.91,0004.87,0004.43
2023-09-17 06:01:00,SystemResetWarning,0835.6,5.00,000.00,028.9,027.4,000.0,037.2,030.4,18.6,0000.0,0008.00,0004.88,0004.43
2023-09-17 06:02:00,SystemResetWarning,0835.6,5.00,000.00,028.9,027.4,000.0,037.2,030.4,18.5,0000.0,0008.07,0004.89,0004.42
2023-09-17 06:03:00,SystemResetWarning,0835.6,5.01,000.00,028.9,027.4,000.0,037.2,030.4,18.6,0000.0,0008.09,0004.88,0004.42
2023-09-17 06:04:00,SystemResetWarning,0835.6,5.00,000.00,028.9,027.4,000.0,037.3,030.4,18.5,0000.0,0008.05,0004.87,0004.42
2023-09-17 06:05:00,SystemResetWarning,0835.6,5.00,000.00,028.9,027.4,000.0,037.3,030.4,18.4,0000.0,0008.07,0004.87,0004.42
2023-09-17 06:06:00,SystemResetWarning,0835.6,5.00,000.00,028.9,027.4,000.0,037.3,030.4,18.3,0000.0,0008.00,0004.84,0004.42
2023-09-17 06:07:00,SystemResetWarning,0835.6,5.00,000.00,028.9,027.4,000.0,037.3,030.4,18.4,0000.0,0008.09,0004.86,0004.40
2023-09-17 06:08:00,SystemResetWarning,0835.6,5.00,000.00,028.9,027.4,000.0,037.3,030.4,18.5,0000.0,0008.20,0004.88,0004.40
2023-09-17 06:09:00,SystemResetWarning,0835.6,5.00,000.00,028.9,027.4,000.0,037.3,030.4,18.5,0000.0,0008.19,0004.88,0004.40
2023-09-17 06:10:00,SystemResetWarning,0835.6,5.00,000.00,028.9,027.4,000.0,037.3,030.4,18.4,0000.0,0008.21,0004.87,0004.38
2023-09-17 06:11:00,SystemResetWarning,0835.6,5.00,000.00,028.9,027.4,000.0,037.3,030.4,18.4,0000.0,0008.26,0004.89,0004.38
2023-09-17 06:12:00,SystemResetWarning,0835.6,5.01,000.00,028.9,027.4,000.0,037.3,030.4,18.3,0000.0,0008.19,0004.88,0004.38
2023-09-17 06:13:00,SystemResetWarning,0835.6,5.01,000.00,028.9,027.4,000.0,037.3,030.4,18.3,0000.0,0008.16,0004.89,0004.38
2023-09-17 06:14:00,SystemResetWarning,0835.5,5.00,000.00,028.9,027.4,000.0,037.3,030.4,18.2,0000.0,0008.42,0004.90,0004.38
2023-09-17 06:15:00,SystemResetWarning,0835.5,5.00,000.00,028.9,027.4,000.0,037.3,030.4,18.2,0000.0,0008.61,0004.91,0004.38
2023-09-17 06:16:00,SystemResetWarning,0835.6,5.00,000.00,028.9,027.4,000.0,037.3,030.4,18.1,0000.0,0008.55,0004.88,0004.38
2023-09-17 06:17:00,SystemResetWarning,0835.5,5.00,000.00,028.9,027.4,000.0,037.3,030.4,18.1,0000.0,0008.57,0004.89,0004.38
2023-09-17 06:18:00,SystemResetWarning,0835.6,5.00,000.00,028.9,027.4,000.0,037.3,030.4,18.0,0000.0,0008.58,0004.89,0004.38
2023-09-17 06:19:00,SystemResetWarning,0835.6,4.99,000.00,028.9,027.4,000.0,037.3,030.4,18.0,0000.0,0008.93,0004.88,0004.39
2023-09-17 06:20:00,SystemResetWarning,0835.6,5.00,000.00,028.9,027.4,000.0,037.3,030.4,17.9,0000.0,0009.39,0004.87,0004.38
2023-09-17 06:21:00,SystemResetWarning,0835.6,5.01,000.00,028.9,027.4,000.0,037.3,030.4,18.0,0000.0,0009.52,0004.90,0004.38
2023-09-17 06:22:00,SystemResetWarning,0835.5,5.00,000.00,028.9,027.4,000.0,037.3,030.4,17.9,0000.2,0009.47,0004.90,0004.38
2023-09-17 06:23:00,SystemResetWarning,0835.5,5.00,000.00,028.9,027.4,000.0,037.3,030.5,17.9,0000.0,0009.40,0004.87,0004.36
2023-09-17 06:24:00,SystemResetWarning,0835.6,5.00,000.00,028.9,027.4,000.0,037.3,030.5,17.8,0000.0,0009.39,0004.86,0004.35
2023-09-17 06:25:00,SystemResetWarning,0835.5,5.01,000.00,028.9,027.4,000.0,037.3,030.5,17.9,0000.0,0009.12,0004.82,0004.34
2023-09-17 06:26:00,SystemResetWarning,0835.6,5.00,000.00,028.9,027.4,000.0,037.3,030.5,17.8,0000.0,0008.91,0004.83,0004.33
2023-09-17 06:27:00,SystemResetWarning,0835.5,5.01,000.00,028.9,027.4,000.0,037.3,030.4,17.8,0000.0,0009.09,0004.84,0004.32
2023-09-17 06:28:00,SystemResetWarning,0835.5,5.00,000.00,028.9,027.4,000.0,037.3,030.5,17.7,0000.0,0009.10,0004.81,0004.30
2023-09-17 06:29:00,SystemResetWarning,0835.5,5.00,000.00,028.9,027.4,000.0,037.3,030.5,17.8,0000.0,0008.97,0004.77,0004.29
2023-09-17 06:30:00,SystemResetWarning,0835.5,5.00,000.00,028.9,027.4,000.0,037.3,030.4,17.6,0000.0,0008.65,0004.75,0004.28
2023-09-17 06:31:00,SystemResetWarning,0835.5,5.00,000.00,028.9,027.4,000.0,037.3,030.5,17.5,0000.0,0007.95,0004.73,0004.27
2023-09-17 06:32:00,SystemResetWarning,0835.5,5.00,000.00,028.9,027.4,000.0,037.3,030.4,17.5,0000.0,0007.83,0004.72,0004.25
2023-09-17 06:33:00,SystemResetWarning,0835.5,4.99,000.00,028.9,027.4,000.0,037.3,030.5,17.5,0000.0,0007.71,0004.68,0004.25
2023-09-17 06:34:00,SystemResetWarning,0835.5,5.00,000.00,028.9,027.4,000.0,037.3,030.5,17.5,0000.0,0007.75,0004.67,0004.25
2023-09-17 06:35:00,SystemResetWarning,0835.5,5.00,000.00,028.9,027.4,000.0,037.3,030.5,17.5,0000.0,0007.73,0004.65,0004.25
2023-09-17 06:36:00,SystemResetWarning,0835.5,5.01,000.00,028.9,027.4,000.0,037.3,030.4,17.5,0000.0,0007.72,0004.63,0004.23
2023-09-17 06:37:00,SystemResetWarning,0835.6,5.01,000.00,028.9,027.4,000.0,037.3,030.5,17.5,0000.0,0007.63,0004.60,0004.22
2023-09-17 06:38:00,SystemResetWarning,0835.5,5.00,000.00,028.9,027.4,000.0,037.3,030.5,17.5,0000.0,0007.43,0004.57,0004.20
2023-09-17 06:39:00,SystemResetWarning,0835.5,5.00,000.00,028.9,027.4,000.0,037.3,030.4,17.4,0000.0,0007.36,0004.57,0004.19
2023-09-17 06:40:00,SystemResetWarning,0835.5,5.00,000.00,028.9,027.4,000.0,037.4,030.4,17.5,0000.0,0007.38,0004.57,0004.18
2023-09-17 06:41:00,SystemResetWarning,0835.5,5.00,000.00,028.9,027.4,000.0,037.3,030.4,17.3,0000.0,0007.45,0004.57,0004.17
2023-09-17 06:42:00,SystemResetWarning,0835.5,5.00,000.00,028.9,027.4,000.0,037.3,030.4,17.3,0000.0,0007.49,0004.57,0004.15
2023-09-17 06:43:00,SystemResetWarning,0835.5,5.00,000.00,028.9,027.4,000.0,037.4,030.4,17.4,0000.0,0007.48,0004.55,0004.15
2023-09-17 06:44:00,SystemResetWarning,0835.5,5.00,000.00,028.9,027.4,000.0,037.4,030.4,17.3,0000.0,0007.65,0004.53,0004.14
2023-09-17 06:45:00,SystemResetWarning,0835.5,5.00,000.00,028.9,027.4,000.0,037.4,030.4,17.3,0000.0,0008.16,0004.56,0004.12
2023-09-17 06:46:00,SystemResetWarning,0835.5,5.01,000.00,028.9,027.4,000.0,037.4,030.4,17.3,0000.0,0008.14,0004.56,0004.11
2023-09-17 06:47:00,SystemResetWarning,0835.5,5.01,000.00,028.9,027.4,000.0,037.4,030.4,17.4,0000.0,0008.13,0004.57,0004.11
2023-09-17 06:48:00,SystemResetWarning,0835.5,5.00,000.00,028.9,027.4,000.0,037.4,030.4,17.3,0000.0,0008.11,0004.57,0004.11
2023-09-17 06:49:00,SystemResetWarning,0835.5,4.99,000.00,028.9,027.4,000.0,037.3,030.4,17.4,0000.0,0008.13,0004.57,0004.12
2023-09-17 06:50:00,SystemResetWarning,0835.5,5.00,000.00,028.9,027.4,000.0,037.3,030.4,17.3,0000.0,0008.20,0004.60,0004.11
2023-09-17 06:51:00,SystemResetWarning,0835.5,5.01,000.00,028.9,027.4,000.0,037.4,030.4,17.3,0000.0,0008.19,0004.59,0004.10
2023-09-17 06:52:00,SystemResetWarning,0835.5,5.01,000.00,028.9,027.4,000.0,037.3,030.4,17.2,0000.0,0008.13,0004.58,0004.09
2023-09-17 06:53:00,SystemResetWarning,0835.5,5.00,000.00,028.9,027.4,000.0,037.3,030.5,17.2,0000.0,0008.19,0004.55,0004.09
2023-09-17 06:54:00,SystemResetWarning,0835.5,4.99,000.00,028.9,027.4,000.0,037.3,030.5,17.2,-000.0,0008.22,0004.53,0004.08
2023-09-17 06:55:00,SystemResetWarning,0835.5,5.00,000.00,028.9,027.4,000.0,037.3,030.4,17.1,-000.7,0007.99,0004.49,0004.07
2023-09-17 06:56:00,SystemResetWarning,0835.5,5.00,000.00,028.9,027.4,000.0,037.3,030.5,17.2,-001.8,0007.87,0004.46,0004.06
2023-09-17 06:57:00,SystemResetWarning,0835.5,5.00,000.00,028.9,027.4,000.0,037.3,030.5,17.1,-001.8,0007.83,0004.42,0004.05
2023-09-17 06:58:00,SystemResetWarning,0835.5,5.00,000.00,028.9,027.4,000.0,037.3,030.5,17.0,-002.3,0007.89,0004.43,0004.04
2023-09-17 06:59:00,SystemResetWarning,0835.5,5.01,000.00,028.9,027.4,000.0,037.3,030.5,17.0,-003.0,0007.95,0004.43,0004.02
